Welcome to the New NWS' Forecast!
Most changes are behind the scenes, but click here for differences you might notice.

Regional Weather Roundup (RWR)

Issued by Gray - Portland, ME (GYX)

                            
000
ASUS41 KGYX 180810
RWRGYX
WEATHER ROUNDUP FOR MAINE AND NEW HAMPSHIRE
NATIONAL WEATHER SERVICE GRAY ME
400 AM EDT THU OCT 18 2018

MEZ002-005-006-010-012-015-018-020-021-024-026-027-029-180900-
MAINE
  
CITY           SKY/WX    TMP DP  RH WIND       PRES   REMARKS
PORTLAND       MOCLDY    36  26  67 W7        29.94R                  
SANFORD        LGT RAIN  36  27  69 W12       29.97R                  
BAR HARBOR     CLOUDY    37  30  75 W8        29.82R                  
WISCASSET      MOCLDY    38  28  67 MISG      29.92R                  
ROCKLAND       FAIR      37  27  67 W16       29.86R                  
FRYEBURG       FAIR      36  21  54 W14G23    29.95R                  
LEWISTONAUBURN FAIR      36  23  59 NW12G17   29.93R                  
AUGUSTA        FAIR      34  27  75 W9        29.89R                  
WATERVILLE     FAIR      33  28  81 W3        29.85R                  
BANGOR         FAIR      35  29  78 W7        29.83R                  
GREENVILLE       N/A     30  20  66 NW17G32   29.76R WCI  18          
MILLINOCKET    MOCLDY    36  25  64 W12G24    29.78R                  
HOULTON        FAIR      32  27  81 W7        29.70R                  
PRESQUE ISLE   FAIR      30  24  78 W8        29.70R                  
FRENCHVILLE    FAIR      32  22  66 NW12      29.65R                  
CARIBOU        FAIR      31  22  69 VRB5      29.67R                  
$$

NHZ002-005-008-009-011-012-014-180900-
NEW HAMPSHIRE
  
CITY           SKY/WX    TMP DP  RH WIND       PRES   REMARKS
PORTSMOUTH     PTCLDY    37  28  69 W12       29.98R                  
ROCHESTER      FAIR      35  29  78 VRB7      29.97R                  
NASHUA         FAIR      34  30  85 CALM      30.04R                  
MANCHESTER     MOCLDY    36  31  82 W5        30.02R                  
CONCORD        FAIR      33  25  72 W8        30.02R                  
LACONIA        FAIR      35  22  58 W14G23    29.98R                  
PLYMOUTH       LGT SNOW  34  27  76 NW13G21   30.00R                  
BERLIN         LGT SNOW  29  26  89 NW10G26   29.93R VSB 1   WCI  20  
WHITEFIELD     CLOUDY    32  25  75 W15       29.95R                  
JAFFREY        MOCLDY    34  22  61 NW10G20   30.02R                  
KEENE          FAIR      36  19  50 W14       30.06R                  
LEBANON        FAIR      34  22  61 W7        30.03R                  
MT WASHINGTON  SNOW       9   9 100 NW67G77     N/A  VSB 1/16WCI -22  
$$

VTZ005-007-008-180900-
VERMONT
  
CITY           SKY/WX    TMP DP  RH WIND       PRES   REMARKS
ST JOHNSBURY     N/A     31  29  92 MISG      29.98R                  
MONTPELIER     LGT SNOW  30  26  85 NW17G30   30.06R FOG     WCI  18  
BURLINGTON     CLOUDY    36  22  56 NW15G23   30.10R                  
$$

MAZ007-012-024-CTZ003-RIZ002-NYZ038-NYZ072-180900-
SOUTHERN NEW ENGLAND AND NY
  
CITY           SKY/WX    TMP DP  RH WIND       PRES   REMARKS
BOSTON         FAIR      40  27  59 W16G25    30.04R                  
WORCESTER      FAIR      34  24  67 W12       30.02R                  
NANTUCKET      MOCLDY    45  27  49 W16G31    30.01R                  
PROVIDENCE     FAIR      41  25  53 W10G20    30.08R                  
HARTFORD       FAIR      40  25  55 NW14      30.10R                  
ALBANY         FAIR      36  22  56 NW12      30.17R                  
NEW YORK CITY  FAIR      47  27  45 W14G22    30.19R                  
$$

ANZ081-ANZ082-ANZ150-NHZ014-MEZ023>029-180900-
COASTAL MARINE OBSERVATIONS
  
STATION/POSITION TIME  TEMP    WIND        PRES    WAVE
                       AIR SEA DIR/SP/G            HT/PER
                 (UTC) (F)     (DEG/KT/KT) (MB)    (FT/S)
MOUNT DESERT ROC 0800   42     280/ 30/ 33 1009.4R
MATINICUS ROCK   0700   43     300/ 29/ 33 1009.4R
ISLE OF SHOALS   0700   40     280/ 25/ 30 1013.7R
JEFFREYS LEDGE   0706      56                N/A     6/ 6
$$

.............KEY..............
   WCI - WIND CHILL
   TC  - TEMPERATURE IN CELSIUS
   VSB - VISIBILITY IN MILES
   HX  - HEAT INDEX
   FAIR- INDICATES FEW OR NO CLOUDS BELOW 12,000 FT, WITH NO 
         SIGNIFICANT WEATHER AND/OR OBSTRUCTIONS TO VISIBILITY.